EN

Hourly Weather Lage

Today, 30 July, Friday

Time Temperature Precipitation Wind Pressure Humidity
00:00 +14°C° 0 mm 2 mps 748 mmHg 88%
01:00 +14°C° 0 mm 2 mps 748 mmHg 89%
02:00 +14°C° 0 mm 2 mps 748 mmHg 90%
03:00 +13°C° 0 mm 2 mps 748 mmHg 90%
04:00 +13°C° 0 mm 2 mps 748 mmHg 91%
05:00 +14°C° 0 mm 2 mps 747 mmHg 87%
06:00 +15°C° 0 mm 2 mps 747 mmHg 83%
07:00 +16°C° 0 mm 2 mps 747 mmHg 78%
08:00 +18°C° 0 mm 3 mps 747 mmHg 72%
09:00 +20°C° 0 mm 3 mps 747 mmHg 66%
10:00 +21°C° 0 mm 4 mps 747 mmHg 59%
11:00 +22°C° 0 mm 4 mps 747 mmHg 56%
12:00 +23°C° 0 mm 4 mps 746 mmHg 53%
13:00 +25°C° 0 mm 4 mps 746 mmHg 50%
14:00 +26°C° 0 mm 4 mps 746 mmHg 49%
15:00 +26°C° 0 mm 4 mps 745 mmHg 48%
16:00 +26°C° 0 mm 4 mps 745 mmHg 47%
17:00 +25°C° 0 mm 4 mps 745 mmHg 53%
18:00 +22°C° 0 mm 4 mps 745 mmHg 60%
19:00 +21°C° 0 mm 4 mps 745 mmHg 66%
20:00 +20°C° 0 mm 4 mps 745 mmHg 72%
21:00 +18°C° 0 mm 4 mps 745 mmHg 77%
22:00 +17°C° 0 mm 3 mps 745 mmHg 83%
23:00 +17°C° 0 mm 4 mps 745 mmHg 82%

Tomorrow, 31 July, Saturday

Time Temperature Precipitation Wind Pressure Humidity
00:00 +15°C° 0 mm 4 mps 745 mmHg 82%
01:00 +15°C° 0 mm 5 mps 745 mmHg 81%
02:00 +15°C° 0 mm 5 mps 744 mmHg 80%
03:00 +15°C° 0 mm 5 mps 744 mmHg 78%
04:00 +14°C° 0 mm 6 mps 744 mmHg 77%
05:00 +14°C° 0 mm 6 mps 744 mmHg 76%
06:00 +15°C° 0 mm 7 mps 744 mmHg 75%
07:00 +15°C° 0 mm 7 mps 744 mmHg 75%
08:00 +16°C° 0 mm 8 mps 744 mmHg 73%
09:00 +16°C° 0 mm 8 mps 744 mmHg 71%
10:00 +17°C° 0 mm 8 mps 744 mmHg 69%
11:00 +18°C° 0.2 mm 8 mps 745 mmHg 69%
12:00 +18°C° 0.2 mm 8 mps 745 mmHg 68%
13:00 +18°C° 0.2 mm 8 mps 745 mmHg 68%
14:00 +20°C° 0.3 mm 8 mps 745 mmHg 69%
15:00 +20°C° 0.3 mm 8 mps 745 mmHg 69%
16:00 +20°C° 0.3 mm 7 mps 745 mmHg 69%
17:00 +18°C° 0.3 mm 7 mps 745 mmHg 73%
18:00 +19°C° 0.3 mm 6 mps 746 mmHg 77%
19:00 +17°C° 0.3 mm 5 mps 746 mmHg 82%
20:00 +16°C° 0.1 mm 5 mps 746 mmHg 86%
21:00 +15°C° 0.1 mm 4 mps 746 mmHg 90%
22:00 +14°C° 0.1 mm 3 mps 746 mmHg 95%
23:00 +14°C° 0 mm 3 mps 746 mmHg 95%

Day after tomorrow, 1 August, Sunday

Time Temperature Precipitation Wind Pressure Humidity
00:00 +13°C° 0 mm 3 mps 747 mmHg 96%
01:00 +14°C° 0 mm 2 mps 747 mmHg 96%
02:00 +13°C° 0 mm 2 mps 747 mmHg 97%
03:00 +13°C° 0 mm 2 mps 746 mmHg 97%
04:00 +13°C° 0 mm 2 mps 746 mmHg 97%
05:00 +14°C° 0 mm 2 mps 746 mmHg 96%
06:00 +13°C° 0 mm 3 mps 747 mmHg 94%
07:00 +14°C° 0 mm 3 mps 747 mmHg 92%
08:00 +16°C° 0.1 mm 3 mps 747 mmHg 88%
09:00 +17°C° 0.1 mm 4 mps 747 mmHg 83%
10:00 +18°C° 0.1 mm 4 mps 747 mmHg 79%
11:00 +19°C° 0.3 mm 4 mps 747 mmHg 75%
12:00 +20°C° 0.3 mm 4 mps 747 mmHg 72%
13:00 +20°C° 0.3 mm 4 mps 747 mmHg 68%
14:00 +21°C° 0.4 mm 4 mps 747 mmHg 67%
15:00 +21°C° 0.4 mm 4 mps 747 mmHg 66%
16:00 +21°C° 0.4 mm 4 mps 746 mmHg 65%
17:00 +20°C° 0.9 mm 4 mps 746 mmHg 72%
18:00 +19°C° 0.9 mm 3 mps 746 mmHg 79%
19:00 +18°C° 0.9 mm 3 mps 746 mmHg 86%
20:00 +17°C° 0.9 mm 2 mps 747 mmHg 89%
21:00 +16°C° 0.9 mm 2 mps 747 mmHg 93%
22:00 +16°C° 0.9 mm 2 mps 747 mmHg 96%
23:00 +15°C° 0.2 mm 1 mps 747 mmHg 96%

2 August, Monday

Time Temperature Precipitation Wind Pressure Humidity
00:00 +15°C° 0.2 mm 1 mps 748 mmHg 96%
01:00 +14°C° 0.2 mm 1 mps 748 mmHg 97%
02:00 +14°C° 0 mm 1 mps 748 mmHg 96%
03:00 +14°C° 0 mm 1 mps 748 mmHg 96%
04:00 +13°C° 0 mm 1 mps 749 mmHg 95%
05:00 +14°C° 0 mm 1 mps 749 mmHg 93%
06:00 +14°C° 0 mm 1 mps 749 mmHg 91%
07:00 +14°C° 0 mm 1 mps 750 mmHg 90%
08:00 +15°C° 0.1 mm 2 mps 750 mmHg 83%
09:00 +17°C° 0.1 mm 3 mps 750 mmHg 77%
10:00 +18°C° 0.1 mm 4 mps 750 mmHg 71%
11:00 +19°C° 0.1 mm 4 mps 750 mmHg 65%
12:00 +20°C° 0.1 mm 4 mps 750 mmHg 60%
13:00 +21°C° 0.1 mm 4 mps 750 mmHg 54%
14:00 +20°C° 0 mm 4 mps 750 mmHg 56%
15:00 +20°C° 0 mm 4 mps 750 mmHg 57%
16:00 +20°C° 0 mm 4 mps 750 mmHg 59%
17:00 +19°C° 0 mm 3 mps 750 mmHg 63%
18:00 +19°C° 0 mm 2 mps 750 mmHg 67%
19:00 +18°C° 0 mm 2 mps 750 mmHg 71%
20:00 +18°C° 0 mm 1 mps 750 mmHg 75%
21:00 +15°C° 0 mm 1 mps 750 mmHg 79%
22:00 +13°C° 0 mm 0 mps 750 mmHg 84%
23:00 +13°C° 0 mm 0 mps 750 mmHg 85%

3 August, Tuesday

Time Temperature Precipitation Wind Pressure Humidity
00:00 +12°C° 0 mm 0 mps 751 mmHg 86%
01:00 +12°C° 0 mm 0 mps 751 mmHg 87%
02:00 +12°C° 0 mm 0 mps 750 mmHg 88%
03:00 +12°C° 0 mm 0 mps 750 mmHg 88%
04:00 +13°C° 0 mm 1 mps 750 mmHg 88%
05:00 +14°C° 0 mm 1 mps 750 mmHg 85%
06:00 +14°C° 0 mm 1 mps 750 mmHg 82%
07:00 +15°C° 0 mm 1 mps 750 mmHg 79%
08:00 +16°C° 0.2 mm 1 mps 750 mmHg 79%
09:00 +16°C° 0.2 mm 1 mps 750 mmHg 79%
10:00 +18°C° 0.2 mm 1 mps 750 mmHg 79%
11:00 +18°C° 0.2 mm 1 mps 750 mmHg 78%
12:00 +18°C° 0.2 mm 1 mps 750 mmHg 77%
13:00 +19°C° 0.2 mm 1 mps 750 mmHg 76%
14:00 +19°C° 0.3 mm 1 mps 750 mmHg 73%
15:00 +20°C° 0.3 mm 1 mps 750 mmHg 71%
16:00 +20°C° 0.3 mm 1 mps 750 mmHg 68%
17:00 +20°C° 0.2 mm 1 mps 750 mmHg 70%
18:00 +19°C° 0.2 mm 1 mps 750 mmHg 72%
19:00 +19°C° 0.2 mm 1 mps 751 mmHg 74%
20:00 +18°C° 0 mm 1 mps 751 mmHg 76%
21:00 +16°C° 0 mm 1 mps 751 mmHg 78%
22:00 +15°C° 0 mm 1 mps 751 mmHg 79%
23:00 +15°C° 0 mm 1 mps 751 mmHg 81%

4 August, Wednesday

Time Temperature Precipitation Wind Pressure Humidity
00:00 +14°C° 0 mm 1 mps 751 mmHg 84%
01:00 +14°C° 0 mm 1 mps 751 mmHg 86%
02:00 +14°C° 0 mm 1 mps 751 mmHg 86%
03:00 +14°C° 0 mm 1 mps 750 mmHg 86%
04:00 +14°C° 0 mm 1 mps 750 mmHg 87%
05:00 +14°C° 0 mm 1 mps 750 mmHg 85%
06:00 +15°C° 0 mm 1 mps 750 mmHg 84%
07:00 +15°C° 0 mm 1 mps 750 mmHg 83%
08:00 +16°C° 0.1 mm 1 mps 750 mmHg 80%
09:00 +18°C° 0.1 mm 1 mps 750 mmHg 78%
10:00 +18°C° 0.1 mm 2 mps 750 mmHg 75%
11:00 +18°C° 0.2 mm 2 mps 750 mmHg 71%
12:00 +19°C° 0.2 mm 2 mps 750 mmHg 67%
13:00 +20°C° 0.2 mm 2 mps 750 mmHg 63%
14:00 +20°C° 0.2 mm 2 mps 750 mmHg 62%
15:00 +21°C° 0.2 mm 2 mps 750 mmHg 60%
16:00 +21°C° 0.2 mm 2 mps 750 mmHg 58%
17:00 +20°C° 0.3 mm 2 mps 750 mmHg 65%
18:00 +19°C° 0.3 mm 2 mps 750 mmHg 72%
19:00 +18°C° 0.3 mm 2 mps 750 mmHg 80%
20:00 +17°C° 0.3 mm 2 mps 750 mmHg 83%
21:00 +16°C° 0.3 mm 2 mps 750 mmHg 86%
22:00 +16°C° 0.3 mm 2 mps 750 mmHg 89%
23:00 +15°C° 0.2 mm 2 mps 750 mmHg 90%
Show more